This is the latest recevied weather packets stored in our database for station/object KC9EGS. If no packets are shown the sender has not sent any weather packets the latest 10 day(s).
| Time | Temp. | Humidity | Pressure | Rain* | Wind** | Luminosity | Snow |
|---|---|---|---|---|---|---|---|
| 1777442134 | 3.33° C | 83% | 1010.7 hPa | 0 mm | - | - | - |
| 1777441530 | 3.33° C | 83% | 1010.7 hPa | 0 mm | - | - | - |
| 1777440934 | 3.89° C | 78% | 1010.8 hPa | 0 mm | - | - | - |
| 1777440628 | 3.89° C | 78% | 1010.8 hPa | 0 mm | - | - | - |
| 1777440335 | 3.89° C | 78% | 1010.7 hPa | 0 mm | - | - | - |
| 1777439728 | 4.44° C | 78% | 1010.7 hPa | 0 mm | - | - | - |
| 1777439134 | 4.44° C | 78% | 1011.1 hPa | 0 mm | - | - | - |
| 1777438828 | 4.44° C | 78% | 1011.1 hPa | 0 mm | - | - | - |
| 1777438535 | 4.44° C | 78% | 1011.1 hPa | 0 mm | - | - | - |
| 1777437930 | 5° C | 77% | 1011.1 hPa | 0 mm | - | - | - |
| 1777437334 | 5° C | 76% | 1011.1 hPa | 0 mm | - | - | - |
| 1777437029 | 5° C | 76% | 1011.1 hPa | 0 mm | - | - | - |
| 1777436734 | 5.56° C | 76% | 1011 hPa | 0 mm | - | - | - |
| 1777436128 | 5.56° C | 76% | 1011 hPa | 0 mm | - | - | - |
| 1777435534 | 5.56° C | 73% | 1011.3 hPa | 0 mm | - | - | - |
| 1777435228 | 5.56° C | 73% | 1011.3 hPa | 0 mm | - | - | - |
| 1777434934 | 6.11° C | 74% | 1011.1 hPa | 0 mm | - | - | - |
| 1777434330 | 6.11° C | 73% | 1011.1 hPa | 0 mm | - | - | - |
| 1777433429 | 6.67° C | 72% | 1011.2 hPa | 0 mm | - | - | - |
| 1777433135 | 6.67° C | 70% | 1011.1 hPa | 0 mm | - | - | - |
| 1777432530 | 7.22° C | 70% | 1011.1 hPa | 0 mm | - | - | - |
| 1777431934 | 7.22° C | 69% | 1011.2 hPa | 0 mm | - | - | - |
| 1777431629 | 7.22° C | 69% | 1011.2 hPa | 0 mm | - | - | - |
| 1777431334 | 7.22° C | 70% | 1011 hPa | 0 mm | - | - | - |
| 1777430730 | 7.78° C | 67% | 1011 hPa | 0 mm | - | - | - |
* Rain latest hour (hover to see other rain measurements)
** Current wind speed in m/s (hover to see current wind gust speed)